Date String (YYYY-MM-DD hh:mm:ss) UTC,Instrument flags,absolute air pressure of the measurement (hPa),sample flow rate (lpm),inlet stack bypass flow (lpm),air temperature of the measurement (°C),ambient temperature measured by the external sensor (°C),aerosol sample conditioner tube jacket temperature (°C),OPC LED temperature (°C),internal box temperature (°C),relative humidity of the measurement (%),span deviation,mass concentration of particles derived from Lorenz-Mie calculation of OPC scattering (μg/m³),mass concentration of particles derived from Lorenz-Mie calculation of OPC scattering (μg/m³),mass concentration of particles derived from Lorenz-Mie calculation of OPC scattering (μg/m³)
DateTimeUTC,F1_M11,P_M11,Q1_M11,Q2_M11,T1_M11,T2_M11,T3_M11,T4_M11,T5_M11,U1_M11,ZSPAN_M11,X2_M11,X0_M11,X1_M11
2024-01-04 11:00:00,SystemResetWarning,0824.4,5.00,000.00,020.4,019.6,000.0,028.9,021.7,13.4,0002.4,0007.12,0013.54,0006.33
2024-01-04 11:01:00,SystemResetWarning,0824.4,5.00,000.00,020.4,019.7,000.0,028.9,021.7,13.4,0002.9,0007.03,0013.23,0006.30
2024-01-04 11:02:00,SystemResetWarning,0824.3,4.99,000.00,020.4,019.7,000.0,028.8,021.7,13.4,0002.9,0006.97,0012.99,0006.27
2024-01-04 11:03:00,SystemResetWarning,0824.4,4.99,000.00,020.4,019.7,000.0,028.8,021.7,13.3,0003.2,0006.92,0013.33,0006.24
2024-01-04 11:04:00,SystemResetWarning,0824.4,5.00,000.00,020.4,019.7,000.0,028.8,021.7,13.3,0002.8,0006.89,0012.88,0006.22
2024-01-04 11:05:00,SystemResetWarning,0824.4,5.01,000.00,020.4,019.7,000.0,028.8,021.7,13.3,0002.9,0006.86,0013.37,0006.19
2024-01-04 11:06:00,SystemResetWarning,0824.3,5.00,000.00,020.4,019.7,000.0,028.8,021.7,13.3,0002.6,0006.85,0013.79,0006.18
2024-01-04 11:07:00,SystemResetWarning,0824.3,5.01,000.00,020.4,019.7,000.0,028.8,021.7,13.3,0002.5,0006.86,0014.34,0006.18
2024-01-04 11:08:00,SystemResetWarning,0824.3,5.01,000.00,020.4,019.7,000.0,028.8,021.7,13.3,0002.8,0006.86,0013.77,0006.18
2024-01-04 11:09:00,SystemResetWarning,0824.2,5.00,000.00,020.4,019.7,000.0,028.8,021.7,13.3,0002.7,0006.86,0013.99,0006.18
2024-01-04 11:10:00,SystemResetWarning,0824.3,5.00,000.00,020.4,019.7,000.0,028.8,021.7,13.3,0002.6,0006.84,0013.63,0006.19
2024-01-04 11:11:00,SystemResetWarning,0824.3,5.00,000.00,020.4,019.7,000.0,028.8,021.8,13.3,0002.5,0006.82,0013.72,0006.19
2024-01-04 11:12:00,SystemResetWarning,0824.2,4.99,000.00,020.4,019.7,000.0,028.8,021.7,13.4,0002.3,0006.84,0014.55,0006.19
2024-01-04 11:13:00,SystemResetWarning,0824.1,5.00,000.00,020.4,019.7,000.0,028.8,021.8,13.4,0001.8,0006.90,0015.48,0006.20
2024-01-04 11:14:00,SystemResetWarning,0824.1,4.99,000.00,020.4,019.7,000.0,028.8,021.8,13.4,0001.6,0006.89,0014.98,0006.21
2024-01-04 11:15:00,SystemResetWarning,0824.2,5.00,000.00,020.4,019.7,000.0,028.8,021.7,13.4,0001.1,0006.88,0014.93,0006.20
2024-01-04 11:16:00,SystemResetWarning,0824.2,5.00,000.00,020.4,019.7,000.0,028.8,021.7,13.4,0000.9,0006.86,0014.54,0006.19
2024-01-04 11:17:00,SystemResetWarning,0824.2,5.01,000.00,020.4,019.7,000.0,028.8,021.7,13.4,0000.4,0006.84,0014.15,0006.17
2024-01-04 11:18:00,SystemResetWarning,0824.2,5.00,000.00,020.4,019.7,000.0,028.8,021.7,13.4,0000.3,0006.82,0013.36,0006.14
2024-01-04 11:19:00,SystemResetWarning,0824.2,5.00,000.00,020.4,019.7,000.0,028.8,021.7,13.4,0000.7,0006.82,0013.41,0006.11
2024-01-04 11:20:00,SystemResetWarning,0824.2,5.01,000.00,020.4,019.7,000.0,028.8,021.7,13.4,0000.4,0006.76,0013.14,0006.06
2024-01-04 11:21:00,SystemResetWarning,0824.2,5.00,000.00,020.4,019.7,000.0,028.8,021.7,13.4,0000.4,0006.72,0012.42,0006.02
2024-01-04 11:22:00,SystemResetWarning,0824.2,4.99,000.00,020.4,019.7,000.0,028.8,021.7,13.4,0000.0,0006.72,0012.17,0005.97
2024-01-04 11:23:00,SystemResetWarning,0824.2,5.00,000.00,020.4,019.7,000.0,028.8,021.7,13.4,0000.4,0006.68,0011.30,0005.93
2024-01-04 11:24:00,SystemResetWarning,0824.2,4.99,000.00,020.4,019.7,000.0,028.8,021.7,13.4,0000.8,0006.63,0010.33,0005.88
2024-01-04 11:25:00,SystemResetWarning,0824.2,5.00,000.00,020.4,019.7,000.0,028.8,021.7,13.4,0001.7,0006.56,0010.23,0005.82
2024-01-04 11:26:00,SystemResetWarning,0824.2,5.00,000.00,020.4,019.7,000.0,028.8,021.7,13.4,0002.3,0006.49,0010.13,0005.76
2024-01-04 11:27:00,SystemResetWarning,0824.2,5.00,000.00,020.4,019.7,000.0,028.7,021.7,13.4,0001.6,0006.42,0010.10,0005.69
2024-01-04 11:28:00,SystemResetWarning,0824.2,5.00,000.00,020.4,019.6,000.0,028.7,021.7,13.4,0001.2,0006.36,0010.37,0005.64
2024-01-04 11:29:00,SystemResetWarning,0824.2,5.00,000.00,020.4,019.6,000.0,028.7,021.7,13.4,0002.6,0006.29,0010.28,0005.61
2024-01-04 11:30:00,SystemResetWarning,0824.2,5.00,000.00,020.4,019.6,000.0,028.7,021.7,13.4,0002.1,0006.22,0010.12,0005.57
2024-01-04 11:31:00,SystemResetWarning,0824.1,5.00,000.00,020.4,019.6,000.0,028.7,021.7,13.4,0001.2,0006.18,0010.30,0005.54
2024-01-04 11:32:00,SystemResetWarning,0824.1,5.01,000.00,020.4,019.7,000.0,028.7,021.7,13.4,0000.6,0006.13,0011.00,0005.49
2024-01-04 11:33:00,SystemResetWarning,0824.1,5.00,000.00,020.4,019.6,000.0,028.7,021.7,13.5,0000.0,0006.06,0011.02,0005.45
2024-01-04 11:34:00,SystemResetWarning,0824.1,5.00,000.00,020.4,019.6,000.0,028.7,021.7,13.5,0000.2,0006.01,0011.00,0005.42
2024-01-04 11:35:00,SystemResetWarning,0824.1,5.01,000.00,020.4,019.6,000.0,028.7,021.7,13.5,0000.4,0005.93,0011.10,0005.38
2024-01-04 11:36:00,SystemResetWarning,0824.2,5.00,000.00,020.4,019.6,000.0,028.7,021.7,13.5,0000.2,0005.89,0011.06,0005.35
2024-01-04 11:37:00,SystemResetWarning,0824.2,5.00,000.00,020.4,019.6,000.0,028.7,021.7,13.5,0000.2,0005.90,0011.85,0005.33
2024-01-04 11:38:00,SystemResetWarning,0824.2,5.00,000.00,020.3,019.6,000.0,028.7,021.6,13.5,0000.0,0005.87,0011.86,0005.31
2024-01-04 11:39:00,SystemResetWarning,0824.2,5.00,000.00,020.3,019.6,000.0,028.7,021.6,13.5,0000.0,0005.87,0011.42,0005.30
2024-01-04 11:40:00,SystemResetWarning,0824.3,5.00,000.00,020.3,019.6,000.0,028.7,021.6,13.5,0000.0,0005.85,0011.31,0005.28
2024-01-04 11:41:00,SystemResetWarning,0824.2,5.00,000.00,020.3,019.6,000.0,028.7,021.6,13.5,0000.0,0005.83,0011.27,0005.26
2024-01-04 11:42:00,SystemResetWarning,0824.2,5.00,000.00,020.3,019.6,000.0,028.7,021.6,13.6,0000.0,0005.84,0011.20,0005.26
2024-01-04 11:43:00,SystemResetWarning,0824.2,5.00,000.00,020.3,019.6,000.0,028.7,021.6,13.6,0000.0,0005.80,0010.69,0005.24
2024-01-04 11:44:00,SystemResetWarning,0824.2,5.00,000.00,020.3,019.6,000.0,028.7,021.6,13.6,0000.0,0005.78,0010.17,0005.23
2024-01-04 11:45:00,SystemResetWarning,0824.1,5.00,000.00,020.3,019.6,000.0,028.7,021.6,13.6,0000.0,0005.79,0010.08,0005.22
2024-01-04 11:46:00,SystemResetWarning,0824.2,5.00,000.00,020.3,019.6,000.0,028.7,021.6,13.6,0000.0,0005.76,0009.75,0005.20
2024-01-04 11:47:00,SystemResetWarning,0824.2,5.00,000.00,020.3,019.6,000.0,028.7,021.6,13.6,0000.0,0005.74,0009.76,0005.18
2024-01-04 11:48:00,SystemResetWarning,0824.3,4.99,000.00,020.3,019.6,000.0,028.7,021.6,13.6,0000.0,0005.70,0009.12,0005.16
2024-01-04 11:49:00,SystemResetWarning,0824.3,5.00,000.00,020.3,019.6,000.0,028.7,021.6,13.6,0000.0,0005.67,0008.92,0005.16
2024-01-04 11:50:00,SystemResetWarning,0824.3,5.00,000.00,020.3,019.5,000.0,028.7,021.6,13.6,0000.0,0005.65,0009.28,0005.15
2024-01-04 11:51:00,SystemResetWarning,0824.3,5.00,000.00,020.2,019.5,000.0,028.7,021.5,13.7,0000.0,0005.69,0009.69,0005.13
2024-01-04 11:52:00,SystemResetWarning,0824.3,5.00,000.00,020.2,019.5,000.0,028.6,021.5,13.7,0000.0,0005.68,0010.38,0005.13
2024-01-04 11:53:00,SystemResetWarning,0824.3,5.00,000.00,020.2,019.5,000.0,028.6,021.5,13.7,0000.0,0005.67,0010.39,0005.13
2024-01-04 11:54:00,SystemResetWarning,0824.3,5.00,000.00,020.2,019.5,000.0,028.6,021.5,13.7,0000.0,0005.69,0010.50,0005.13
2024-01-04 11:55:00,SystemResetWarning,0824.3,5.00,000.00,020.2,019.5,000.0,028.6,021.5,13.8,0000.0,0005.69,0010.67,0005.11
2024-01-04 11:56:00,SystemResetWarning,0824.3,5.00,000.00,020.2,019.5,000.0,028.6,021.5,13.8,0000.0,0005.61,0010.52,0005.10
2024-01-04 11:57:00,SystemResetWarning,0824.3,5.00,000.00,020.2,019.5,000.0,028.6,021.5,13.8,0000.0,0005.58,0010.56,0005.08
2024-01-04 11:58:00,SystemResetWarning,0824.3,5.00,000.00,020.2,019.5,000.0,028.6,021.6,13.8,0000.0,0005.58,0011.68,0005.08
2024-01-04 11:59:00,SystemResetWarning,0824.3,5.01,000.00,020.2,019.5,000.0,028.6,021.5,13.8,0000.0,0005.58,0012.14,0005.08
